GW3802 Weather Reports


time (UTC)temp
C
wind
direction
speed
KPH
gust
KPH
rain 1hr
cm
rain 24hr
cm
rain mn
cm
humidity
%
barometer
mb
20260503180322 16 316 11.3 20.9 0.00 0.00 0.00 31 1008.5
20260503175818 16 243 6.4 12.9 0.00 0.00 0.00 31 1008.8
20260503175316 15 242 12.9 20.9 0.00 0.00 0.00 32 1008.8
20260503174811 15 310 19.3 25.7 0.00 0.00 0.00 29 1008.8
20260503174310 16 322 9.7 29.0 0.00 0.00 0.00 29 1009.2
20260503173805 16 311 9.7 22.5 0.00 0.00 0.00 32 1008.8
20260503173301 16 282 12.9 16.1 0.00 0.00 0.00 30 1008.8
20260503172758 15 290 9.7 14.5 0.00 0.00 0.00 31 1008.8
20260503172256 15 245 12.9 20.9 0.00 0.00 0.00 28 1009.2
20260503171752 15 280 11.3 25.7 0.00 0.00 0.00 30 1009.2
20260503171249 15 282 4.8 17.7 0.00 0.00 0.00 33 1009.2
20260503170746 15 311 6.4 17.7 0.00 0.00 0.00 33 1009.5
20260503170243 15 344 9.7 24.1 0.00 0.00 0.00 33 1009.5
20260503160205 15 258 9.7 14.5 0.00 0.00 0.00 29 1009.5
20260503150635 15 325 8.0 16.1 0.00 0.00 0.00 34 1010.2
20260503150131 13 292 4.8 14.5 0.00 0.00 0.00 36 1010.6
20260503131025 8 330 6.4 9.7 0.00 0.00 0.00 46 1011.0
20260503130522 8 295 4.8 11.3 0.00 0.00 0.00 44 1011.3
20260503110413 0 277 0.0 0.0 0.00 0.00 0.00 77 1012.0
20260503090303 0 297 0.0 0.0 0.00 0.00 0.00 71 1012.6
20260503081236 1 286 0.0 0.0 0.00 0.00 0.00 69 1012.6
20260503080732 1 289 0.0 1.6 0.00 0.00 0.00 69 1012.6
20260503080229 1 288 0.0 0.0 0.00 0.00 0.00 68 1012.6
20260503072706 2 286 1.6 1.6 0.00 0.00 0.00 64 1012.6
20260503072203 2 277 1.6 3.2 0.00 0.00 0.00 64 1012.6
20260503071659 2 299 0.0 3.2 0.00 0.00 0.00 63 1013.0
20260503071156 2 265 1.6 3.2 0.00 0.00 0.00 64 1012.6
20260503070653 2 280 0.0 3.2 0.00 0.00 0.00 63 1012.6
20260503070152 2 284 0.0 3.2 0.00 0.00 0.00 62 1012.6
20260503060115 2 296 0.0 1.6 0.00 0.00 0.00 60 1013.0
20260503055107 3 284 0.0 3.2 0.00 0.00 0.00 59 1013.0
20260503054602 2 288 0.0 4.8 0.00 0.00 0.00 59 1013.0
20260503054100 2 291 1.6 3.2 0.00 0.00 0.00 61 1013.0
20260503053558 2 260 0.0 3.2 0.00 0.00 0.00 64 1013.3
20260503053055 1 263 0.0 0.0 0.00 0.00 0.00 67 1013.3
20260503052552 1 263 0.0 0.0 0.00 0.00 0.00 70 1013.3
20260503052048 1 263 0.0 0.0 0.00 0.00 0.00 71 1013.3
20260503051544 1 263 0.0 0.0 0.00 0.00 0.00 72 1013.3
20260503051042 1 263 0.0 0.0 0.00 0.00 0.00 72 1013.3
20260503050537 1 263 0.0 0.0 0.00 0.00 0.00 72 1013.3
20260503050035 1 263 0.0 0.0 0.00 0.00 0.00 72 1013.7
20260503045532 1 262 0.0 1.6 0.00 0.00 0.00 74 1013.3
20260503045029 0 269 0.0 0.0 0.00 0.00 0.00 75 1013.7
20260503044526 0 269 0.0 0.0 0.00 0.00 0.00 75 1013.7
20260503044024 0 269 0.0 0.0 0.00 0.00 0.00 75 1013.7
20260503043519 0 269 0.0 0.0 0.00 0.00 0.00 76 1013.7
20260503043016 0 269 0.0 0.0 0.00 0.00 0.00 76 1013.7
20260503042513 0 269 0.0 0.0 0.00 0.00 0.00 75 1013.7
20260503042009 0 269 0.0 0.0 0.00 0.00 0.00 75 1013.7
20260503041507 0 269 0.0 0.0 0.00 0.00 0.00 75 1013.7
20260503041004 0 269 0.0 0.0 0.00 0.00 0.00 75 1013.7
20260503040501 0 269 0.0 0.0 0.00 0.00 0.00 75 1013.7
20260503035958 0 269 0.0 0.0 0.00 0.00 0.00 75 1013.7
20260503035455 0 269 0.0 0.0 0.00 0.00 0.00 75 1013.7
20260503034953 1 269 0.0 0.0 0.00 0.00 0.00 75 1014.0
20260503034450 1 269 0.0 0.0 0.00 0.00 0.00 74 1013.7
20260503033947 1 269 0.0 0.0 0.00 0.00 0.00 74 1014.0
20260503033444 1 269 0.0 0.0 0.00 0.00 0.00 73 1014.0
20260503032942 1 269 0.0 0.0 0.00 0.00 0.00 73 1014.0
20260503032435 1 269 0.0 0.0 0.00 0.00 0.00 73 1014.0
20260503031932 1 269 0.0 0.0 0.00 0.00 0.00 73 1014.0
20260503031430 1 269 0.0 0.0 0.00 0.00 0.00 73 1014.0
20260503030926 2 269 0.0 0.0 0.00 0.00 0.00 74 1014.0
20260503030423 2 268 0.0 0.0 0.00 0.00 0.00 74 1014.0
20260503025919 2 268 0.0 0.0 0.00 0.00 0.00 74 1014.0
20260503025416 2 268 0.0 0.0 0.00 0.00 0.00 73 1014.0
20260503024914 2 269 0.0 0.0 0.00 0.00 0.00 70 1014.3
20260503024410 2 268 0.0 0.0 0.00 0.00 0.00 71 1014.3
20260503023907 2 268 0.0 0.0 0.00 0.00 0.00 73 1014.3
20260503023404 2 268 0.0 0.0 0.00 0.00 0.00 72 1014.3
20260503022901 2 268 0.0 0.0 0.00 0.00 0.00 72 1014.3
20260503022355 2 268 0.0 0.0 0.00 0.00 0.00 72 1014.3
20260503021852 3 268 0.0 0.0 0.00 0.00 0.00 72 1014.3
20260503021348 3 268 0.0 0.0 0.00 0.00 0.00 72 1014.3
20260503020845 2 268 0.0 0.0 0.00 0.00 0.00 70 1014.3
20260503020343 2 268 0.0 0.0 0.00 0.00 0.00 72 1014.3
20260503015839 3 268 0.0 0.0 0.00 0.00 0.00 71 1014.3
20260503015337 3 268 0.0 0.0 0.00 0.00 0.00 70 1014.3
20260503014832 3 268 0.0 0.0 0.00 0.00 0.00 68 1014.3
20260503014330 3 263 0.0 1.6 0.00 0.00 0.00 66 1014.3
20260503013827 3 270 0.0 0.0 0.00 0.00 0.00 67 1014.3
20260503013325 3 270 0.0 0.0 0.00 0.00 0.00 66 1014.3
20260503012822 3 270 0.0 0.0 0.00 0.00 0.00 65 1014.3
20260503012319 3 270 0.0 0.0 0.00 0.00 0.00 64 1014.3
20260503011816 3 269 0.0 0.0 0.00 0.00 0.00 64 1014.3
20260503011313 3 287 0.0 0.0 0.00 0.00 0.00 65 1014.3
20260503010809 3 287 0.0 0.0 0.00 0.00 0.00 64 1014.0
20260503010307 3 287 0.0 0.0 0.00 0.00 0.00 62 1014.3
20260503005803 4 276 0.0 0.0 0.00 0.00 0.00 60 1014.0
20260503005301 4 287 0.0 0.0 0.00 0.00 0.00 59 1014.3
20260503004756 5 290 0.0 0.0 0.00 0.00 0.00 65 1014.0
20260503004255 5 314 0.0 0.0 0.00 0.00 0.00 62 1014.0
20260503003751 5 279 0.0 0.0 0.00 0.00 0.00 61 1014.0
20260503003249 5 296 0.0 0.0 0.00 0.00 0.00 53 1014.0
20260503002745 5 284 0.0 0.0 0.00 0.00 0.00 54 1014.0
20260503002242 6 272 0.0 0.0 0.00 0.00 0.00 58 1014.0
20260503001738 6 271 0.0 0.0 0.00 0.00 0.00 51 1014.0
20260503001235 6 275 0.0 0.0 0.00 0.00 0.00 52 1014.0
20260503000733 7 134 3.2 6.4 0.00 0.00 0.00 42 1014.0
20260503000230 7 202 1.6 4.8 0.00 0.00 0.00 39 1014.3
20260502235727 8 354 0.0 1.6 0.00 0.00 0.00 40 1014.0
20260502235225 8 343 0.0 0.0 0.00 0.00 0.00 38 1014.0
20260502234721 7 228 0.0 1.6 0.00 0.00 0.00 43 1014.3
20260502234218 8 221 1.6 3.2 0.00 0.00 0.00 39 1014.0
20260502233714 8 242 0.0 1.6 0.00 0.00 0.00 40 1014.3
20260502233211 7 183 1.6 6.4 0.00 0.00 0.00 39 1014.3
20260502232706 8 66 3.2 4.8 0.00 0.00 0.00 41 1014.0
20260502232204 8 132 3.2 4.8 0.00 0.00 0.00 38 1014.0
20260502231700 8 244 0.0 1.6 0.00 0.00 0.00 29 1014.0
20260502231158 9 271 3.2 4.8 0.00 0.00 0.00 30 1014.3
20260502230657 8 45 0.0 4.8 0.00 0.00 0.00 32 1014.0
20260502230155 9 16 1.6 9.7 0.00 0.00 0.00 31 1014.3
20260502225650 9 284 0.0 1.6 0.00 0.00 0.00 31 1014.0
20260502225148 9 358 1.6 6.4 0.00 0.00 0.00 34 1014.3
20260502224644 8 348 3.2 6.4 0.00 0.00 0.00 34 1014.0
20260502224141 8 337 4.8 11.3 0.00 0.00 0.00 33 1014.3
20260502223638 8 36 1.6 4.8 0.00 0.00 0.00 34 1014.3
20260502223136 8 309 0.0 9.7 0.00 0.00 0.00 35 1014.3
20260502222634 8 327 0.0 1.6 0.00 0.00 0.00 34 1014.3
20260502222125 8 304 0.0 9.7 0.00 0.00 0.00 38 1014.3
20260502221620 8 307 1.6 3.2 0.00 0.00 0.00 36 1014.3
20260502221117 8 296 1.6 3.2 0.00 0.00 0.00 35 1014.3
20260502220614 8 307 0.0 3.2 0.00 0.00 0.00 36 1014.3
20260502220110 8 282 1.6 4.8 0.00 0.00 0.00 38 1014.3
20260502215607 8 273 6.4 14.5 0.00 0.00 0.00 36 1014.3
20260502215104 8 294 0.0 11.3 0.00 0.00 0.00 36 1014.3
20260502214600 8 305 3.2 9.7 0.00 0.00 0.00 38 1014.3
20260502214058 8 300 3.2 4.8 0.00 0.00 0.00 38 1014.3
20260502213555 8 270 1.6 4.8 0.00 0.00 0.00 35 1014.3
20260502213052 8 288 6.4 12.9 0.00 0.00 0.00 36 1014.3
20260502212551 8 262 1.6 9.7 0.00 0.00 0.00 38 1014.3
20260502212049 8 313 0.0 1.6 0.00 0.00 0.00 36 1014.3
20260502211544 8 267 0.0 4.8 0.00 0.00 0.00 38 1014.3
20260502211042 8 281 0.0 6.4 0.00 0.00 0.00 38 1014.3
20260502210538 8 296 1.6 3.2 0.00 0.00 0.00 37 1014.3
20260502210036 8 349 1.6 3.2 0.00 0.00 0.00 39 1014.3
20260502205532 7 283 3.2 11.3 0.00 0.00 0.00 37 1014.7
20260502205029 7 312 1.6 12.9 0.00 0.00 0.00 39 1014.7
20260502204526 8 294 3.2 11.3 0.00 0.00 0.00 35 1014.3
20260502204024 8 276 6.4 9.7 0.00 0.00 0.00 35 1014.3
20260502203520 8 304 0.0 9.7 0.00 0.00 0.00 36 1014.3
20260502203017 8 13 1.6 11.3 0.00 0.00 0.00 36 1014.7
20260502202513 8 279 4.8 4.8 0.00 0.00 0.00 38 1014.7
20260502202012 8 298 1.6 4.8 0.00 0.00 0.00 40 1014.7
20260502201508 8 294 1.6 6.4 0.00 0.00 0.00 37 1014.7
20260502201004 8 271 1.6 3.2 0.00 0.00 0.00 34 1014.7
20260502200500 8 311 0.0 3.2 0.00 0.00 0.00 35 1015.0
20260502195958 8 295 1.6 6.4 0.00 0.00 0.00 38 1014.7
20260502195455 8 334 1.6 3.2 0.00 0.00 0.00 39 1014.7
20260502194951 8 306 1.6 4.8 0.00 0.00 0.00 39 1014.7
20260502194448 8 328 6.4 11.3 0.00 0.00 0.00 37 1015.0
20260502193944 8 210 4.8 11.3 0.00 0.00 0.00 36 1015.0
20260502193442 8 297 4.8 11.3 0.00 0.00 0.00 39 1015.0
20260502192937 8 306 3.2 6.4 0.00 0.00 0.00 36 1015.0
20260502192434 7 314 1.6 4.8 0.00 0.00 0.00 38 1015.4
20260502191931 7 326 1.6 4.8 0.00 0.00 0.00 35 1015.4
20260502191429 8 301 3.2 6.4 0.00 0.00 0.00 37 1015.0
20260502190926 8 291 0.0 6.4 0.00 0.00 0.00 36 1015.4
20260502190423 7 321 0.0 3.2 0.00 0.00 0.00 39 1015.4
20260502185919 7 309 0.0 3.2 0.00 0.00 0.00 38 1015.4
20260502185415 8 355 1.6 3.2 0.00 0.00 0.00 40 1015.4
20260502184912 7 316 3.2 4.8 0.00 0.00 0.00 39 1015.4
20260502184408 7 336 0.0 1.6 0.00 0.00 0.00 42 1015.4
20260502183905 7 304 0.0 9.7 0.00 0.00 0.00 40 1015.4
20260502183400 7 282 0.0 0.0 0.00 0.00 0.00 43 1015.4
20260502182856 7 299 1.6 12.9 0.00 0.00 0.00 41 1015.8
20260502182352 7 321 1.6 6.4 0.00 0.00 0.00 44 1015.4
20260502181848 7 314 1.6 6.4 0.00 0.00 0.00 42 1015.4
20260502181347 6 317 1.6 11.3 0.00 0.00 0.00 43 1015.4
20260502180845 6 263 0.0 11.3 0.00 0.00 0.00 45 1015.8